Location: Unspecified
(0.0000°N, 0.0000°E)
Time: 07:50:16
(UTC+02:00)

Milstar 3 - Visible Passes

Search period start: 01 April 2015 00:00
Search period end: 11 April 2015 00:00
Orbit: 1100 x 5146 km, 28.2° (Epoch: 30 March)

Date Brightness Start Highest point End Pass type
(mag) Time Alt. Az. Time Alt. Az. Time Alt. Az.
01 Apr 6.3 02:36:58 27° ENE 02:36:58 27° ENE 02:48:52 10° E visible
01 Apr 5.3 05:10:35 60° NW 05:17:37 89° NNE 05:50:58 10° ESE visible
02 Apr 5.3 04:13:09 72° NE 04:13:09 72° NE 04:43:23 10° ESE visible
02 Apr 5.9 06:46:46 21° W 07:07:40 60° SSW 07:39:37 10° SE visible
03 Apr 5.8 03:15:42 43° E 03:15:42 43° E 03:34:42 10° ESE visible
03 Apr 5.4 05:49:19 45° W 06:00:25 72° SSW 06:33:38 10° SE visible
04 Apr 6.5 02:18:14 20° E 02:18:14 20° E 02:25:12 10° E visible
04 Apr 5.1 04:51:51 79° WNW 04:54:16 86° SSW 05:26:47 10° ESE visible
04 Apr 6.2 07:25:40 10° W 07:52:10 47° SSW 08:21:51 10° SE visible
05 Apr 5.4 03:54:22 64° E 03:54:22 64° E 04:19:04 10° ESE visible
05 Apr 5.7 06:27:59 29° W 06:44:05 56° SSW 07:16:03 10° SE visible
06 Apr 6.1 02:56:51 34° E 02:56:51 34° E 03:10:34 10° ESE visible
06 Apr 5.3 05:30:28 55° WSW 05:37:02 67° SSW 06:09:33 10° SE visible
07 Apr 6.7 01:59:19 13° E 01:59:19 13° E 02:01:37 10° E visible
07 Apr 5.2 04:32:56 78° S 04:32:56 78° S 05:02:24 10° SE visible
07 Apr 6.0 07:06:32 15° W 07:28:46 44° SSW 07:58:45 10° SE visible
08 Apr 5.7 03:35:22 50° ESE 03:35:22 50° ESE 03:54:38 10° ESE visible
08 Apr 5.6 06:08:58 36° WSW 06:20:46 52° SSW 06:52:16 10° SE visible
09 Apr 6.3 02:37:47 25° ESE 02:37:47 25° ESE 02:46:28 10° ESE visible
09 Apr 5.3 05:11:23 60° SW 05:13:58 62° SSW 05:45:17 10° SE visible
10 Apr 5.4 04:13:46 61° SSE 04:13:46 61° SSE 04:37:52 10° SE visible
10 Apr 5.9 06:47:22 20° WSW 07:05:35 42° SSW 07:35:27 10° SE visible
